Погода в Тетюши

Погода в Тетюши : погода сейчас, прогноз погоды и архив. Всё, что Вы хотите узнать о погоде в Тетюши!

Поиск расширенной информации на нашем сайте:

Другие новости

Новости СМИ2

Главная страница сайта

Новости сайта

03.07.2017

Напоминаем, что на нашем специализированном сайте Метеоцентр.Азия вы можете получить высокодетализированные автоматические прогнозы погоды по пунктам России, СНГ и мира в авиационном формате (включающие направление и скорость ветра, видимость, явления погоды, количество и форму облачности, нижнюю и верхнюю границу облачности).


Погода в Тетюши - сегодня

Время (UTC), дата Ветер
(°,м/с) 
Видим.   Явления Облачность Т
(°С)
Тd
(°С)
f(%) Тe
(°С)
Pmin
(гПа)
dP
(гПа)
Po
(мм)
O2
(г/м3)
Тmin Tmax R s Состояние
почвы
00 14.08.18 210 (ЮЗ) 20000 м    8/0 средняя 
[Ac trans]
+14.7 +7.6 62 +15  1009.8  0.1  743  283           
06 14.08.18 260 (З) 20000 м    10/6 600 м кучево-дожд., средняя 
[Cb cap|As op]
+18.9 +9.7 55 +21  1011.3  0.8  745  279           
09 14.08.18 260 (З) 20000 м    10/6 600 м кучево-дожд., средняя 
[Cb cap|As op]
+19.9 +9.2 50 +21  1011.9  0.7  745  278           
12 14.08.18 290 (З) 20000 м    8/6 600 м кучево-дожд., средняя 
[Cb cap|Ac trans]
+23.1 +5.7 32 +23  1011.5  -0.2  745  276           
18 14.08.18 230 (ЮЗ) 20000 м    3/0 средняя 
[Ac trans]
+15.8 +9.3 65 +17  1014.5  1.6  747  283           
21 14.08.18 230 (ЮЗ) 20000 м    ясно 
+13.4 +7.9 69 +14  1015.7  748  286           
00 15.08.18 220 (ЮЗ) 20000 м    ясно 
+12.2 +6.5 68 +12  1016.7  0.9  748  288           
06 15.08.18 240 (ЮЗ) 20000 м    4/0 верхняя 
[Ci fib]
+21.6 +7.5 40 +22  1017.8  0.6  750  279           
09 15.08.18 270 (З) 20000 м    8/6 600 м верхняя 
[Cu med, cong|Ci fib]
+23.9 +5.6 31 +24  1017.4  -0.2  749  277           
12 15.08.18 230 (ЮЗ) 20000 м    8/6 600 м верхняя 
[Cu med, cong|Ci fib]
+25.2 +4.2 26 +25  1016.6  -0.7  749  276           
18 15.08.18 150 (ЮВ) 20000 м    4/0 средняя 
[Ac trans]
+19.8 +5.6 39 +21  1015.9  -0.7  748  280           
21 15.08.18 160 (Ю) 20000 м    3/0 средняя 
[Ac trans]
+19.1 +11.1 60 +23  1015.1  -0.9  748  279           
00 16.08.18 180 (Ю) 20000 м    6/0 средняя 
[Ac trans]
+20.2 +10 52 +21  1013.8  -1.2  747  278           
06 16.08.18 220 (ЮЗ) 7-11{15}  20000 м    8/6 600 м кучево-дожд., средняя 
[Cb cap|Ac trans]
+24.6 +9.8 39 +26  1012.3  -0.1  746  274           
18 16.08.18 300 (СЗ) 20000 м    8/8 600 м кучево-дожд. 
[Cb cap]
+19.3 +14.2 72 +27  1014.5  747  278           
21 16.08.18 330 (СЗ) 20000 м    8/6 600 м кучево-дожд., средняя 
[Cb cap|Ac trans]
+15.5 +13.6 88 +22  1016.2  1.4  748  283           
00 17.08.18 350 (С) 20000 м    8/0 кучево-дожд., средняя 
[Cb cap|Ac trans]
+15.5 +12.4 82 +21  1017.4  1.1  749  283           
06 17.08.18 350 (С) 20000 м    8/6 600 м кучево-дожд., средняя 
[Cb cap|Ac trans]
+16.7 +10.8 68 +19  1020  751  283           
09 17.08.18 040 (СВ) 20000 м    8/8 600 м 
[Cu med, cong]
+19.7 +9 50 +20  1020  0.2  751  281           
12 17.08.18 050 (СВ) 20000 м    8/8 600 м кучево-дожд. 
[Cb cap]
+20.4 +8.4 46 +20  1019.8  -0.2  751  280           
18 17.08.18 360 (С) 20000 м    6/0 средняя 
[Ac trans]
+15.3 +7.1 58 +16  1020.9  0.6  752  286           
21 17.08.18 330 (СЗ) 20000 м    3/0 средняя 
[Ac trans]
+10.4 +6.4 76 +11  1021.7  0.4  752  291           
00 18.08.18 280 (З) 20000 м    ясно 
+7.9 +5.9 87 +9  1022.7  0.7  753  294           
06 18.08.18 350 (С) 6{11}  20000 м    4/4 600 м 
[Cu med, cong]
+16.6 +6 49 +16  1023.6  0.3  754  285           
09 18.08.18 020 (С) 20000 м    6/6 600 м 
[Cu med, cong]
+18.1 +6.6 47 +18  1022.9  -0.6  753  284           
Время (UTC), дата Ветер
(°,м/с) 
Видим.   Явления Облачность Т
(°С)
Тd
(°С)
f(%) Тe
(°С)
Pmin
(гПа)
dP
(гПа)
Po
(мм)
O2
(г/м3)
Тmin Tmax R s Состояние
почвы

Для получения пояснительной информации подведите курсор к названию столбца.

ПОГОДА в Тетюши - архив

Всё, что Вы хотите узнать о погоде в Тетюши - удобно и подробно!

Выберите нужную дату (начиная с 1 января 2015* года) и нажмите кнопку "Найти".
Будут отображены архивные сводки погоды по пункту Тетюши, начиная с указанной даты.


Отображать данные в формате CSV (для использования в таблицах Excel)


Внимание! Наш архив погоды предназначен исключительно для личного некоммерческого использования в познавательных целях. Если Вам необходимы официальные справки о состоянии погоды (для производственных, юридических, коммерческих и т.п. целей), обращайтесь в органы Росгидромета.

*Примечание: данная дата относится к архиву по метеостанциям СССР (Россия, СНГ, Балтия).
Архив по метеостанциям Зарубежной Европы и Азии (кроме Китая) хранится 10 дней, по другим регионам земного шара (Китай, Африка, Америка, Австралия, Океания) - 1 день.

Тетюши - район местоположения метеостанции


Название, широта, долгота, высота метеостанции:
Тетюши 54.9°ш. 48.8°д. 156 м над ур. моря [Российская Федерация]

Дополнительная информация

В oтличие oт бoльшинства пoгoдных сайтoв мы публикуем пoдрoбную метеoинфoрмацию в детальнoм прoфессиoнальнoм фoрмате.

Характеристики температуры и влажнoсти вoздуха измеряются на высoте 2 м в тени вдали oт зданий и деревьев.
Скoрoсть ветра измеряется на высoте 10 м (на урoвне рoста челoвека скoрoсть ветра ниже в 1.5-2 раза). Если метеoстанция нахoдится в гoрoде или в лесу, тo скoрoсть ветра занижена на 2-4 м/с пo сравнению с oткрытым местoм. Скoрoсть ветра над акватoриями крупных рек и oзёр, а также на вершинах хoлмoв на 2-5 м/с выше, чем в oбычных услoвиях.
Атмoсфернoе давление в разных тoчках местнoсти мoжет значительнo oтличаться oт давления на метеoстанции, в зависимoсти oт услoвий рельефа (при пoдъёме на 10 м давление пoнижается примернo на 1 мм рт.ст.).